TimeMDT,TemperatureF,Dew PointF,Humidity,Sea Level PressureIn,VisibilityMPH,Wind Direction,Wind SpeedMPH,Gust SpeedMPH,PrecipitationIn,Events,Conditions,WindDirDegrees,DateUTC
12:53 AM,45.0,34.0,65,29.72,10.0,NNE,9.2,-,N/A,,Scattered Clouds,20,2013-10-31 06:53:00
1:53 AM,45.0,33.1,63,29.71,10.0,NNE,9.2,-,N/A,,Overcast,30,2013-10-31 07:53:00
2:53 AM,44.1,32.0,63,29.72,10.0,West,12.7,-,N/A,,Overcast,280,2013-10-31 08:53:00
3:53 AM,42.1,32.0,67,29.73,10.0,West,10.4,-,N/A,,Scattered Clouds,270,2013-10-31 09:53:00
4:53 AM,37.9,30.9,76,29.75,10.0,West,10.4,-,N/A,,Clear,270,2013-10-31 10:53:00
5:53 AM,36.0,30.9,82,29.79,10.0,West,6.9,-,N/A,,Clear,280,2013-10-31 11:53:00
6:53 AM,34.0,30.0,85,29.81,10.0,Calm,Calm,-,N/A,,Clear,0,2013-10-31 12:53:00
7:53 AM,35.1,30.9,85,29.82,10.0,SW,8.1,-,N/A,,Clear,220,2013-10-31 13:53:00
8:53 AM,39.9,30.0,68,29.83,10.0,West,9.2,-,N/A,,Clear,260,2013-10-31 14:53:00
9:53 AM,46.0,28.0,50,29.82,10.0,WSW,8.1,-,N/A,,Clear,240,2013-10-31 15:53:00
10:53 AM,52.0,24.1,34,29.80,10.0,WSW,8.1,-,N/A,,Clear,240,2013-10-31 16:53:00
11:53 AM,55.0,18.0,23,29.80,10.0,WSW,5.8,-,N/A,,Clear,240,2013-10-31 17:53:00
12:53 PM,59.0,16.0,19,29.75,10.0,WSW,10.4,-,N/A,,Clear,240,2013-10-31 18:53:00
1:53 PM,60.1,12.0,15,29.70,10.0,Variable,4.6,-,N/A,,Clear,0,2013-10-31 19:53:00
2:53 PM,61.0,9.0,13,29.68,10.0,SW,4.6,-,N/A,,Clear,220,2013-10-31 20:53:00
3:53 PM,63.0,10.9,13,29.68,10.0,North,3.5,-,N/A,,Clear,360,2013-10-31 21:53:00
4:53 PM,62.1,10.9,13,29.69,10.0,ESE,4.6,-,N/A,,Clear,110,2013-10-31 22:53:00
5:53 PM,55.9,10.9,17,29.72,10.0,ENE,6.9,-,N/A,,Clear,60,2013-10-31 23:53:00
6:53 PM,51.1,10.9,20,29.75,10.0,East,5.8,-,N/A,,Clear,80,2013-11-01 00:53:00
7:53 PM,50.0,21.9,33,29.79,10.0,NNE,11.5,-,N/A,,Clear,20,2013-11-01 01:53:00
8:53 PM,44.1,21.0,40,29.82,10.0,NNW,6.9,-,N/A,,Clear,340,2013-11-01 02:53:00
9:53 PM,42.1,19.9,41,29.84,10.0,WNW,5.8,-,N/A,,Clear,300,2013-11-01 03:53:00
10:53 PM,43.0,21.0,42,29.83,10.0,SW,8.1,-,N/A,,Clear,230,2013-11-01 04:53:00
11:53 PM,41.0,19.9,43,29.85,10.0,West,11.5,-,N/A,,Clear,260,2013-11-01 05:53:00